Time,TemperatureF,DewpointF,PressureIn,WindDirection,WindDirectionDegrees,WindSpeedMPH,WindSpeedGustMPH,Humidity,HourlyPrecipIn,Conditions,Clouds,dailyrainin,SoftwareType,DateUTC
2013-09-17 00:01:00,64.8,60.2,30.18,NNW,327,1.2,0.0,85,0.00,CLR,,0.00,WeatherDisplay:10.37,2013-09-17 04:01:00,
2013-09-17 00:02:00,64.8,60.2,30.18,NNW,327,1.2,0.0,85,0.00,CLR,,0.00,WeatherDisplay:10.37,2013-09-17 04:02:00,
2013-09-17 00:03:00,64.8,60.2,30.18,NNW,327,1.2,0.0,85,0.00,CLR,,0.00,WeatherDisplay:10.37,2013-09-17 04:03:00,
2013-09-17 00:08:00,64.7,60.1,30.18,NNW,327,0.0,0.0,85,0.00,CLR,,0.00,WeatherDisplay:10.37,2013-09-17 04:08:00,
2013-09-17 00:10:00,64.6,60.0,30.18,NNW,327,0.0,0.0,85,0.00,CLR,,0.00,WeatherDisplay:10.37,2013-09-17 04:10:00,
2013-09-17 00:15:00,64.6,60.0,30.18,NNW,327,0.0,0.0,85,0.00,CLR,,0.00,WeatherDisplay:10.37,2013-09-17 04:15:00,
2013-09-17 00:20:00,64.4,59.8,30.19,NNW,327,0.0,0.0,85,0.00,CLR,,0.00,WeatherDisplay:10.37,2013-09-17 04:20:00,
2013-09-17 00:25:00,64.3,59.7,30.18,NNW,327,1.2,0.0,85,0.00,CLR,,0.00,WeatherDisplay:10.37,2013-09-17 04:25:00,
2013-09-17 00:30:00,64.2,59.6,30.18,NNW,327,1.2,0.0,85,0.00,CLR,,0.00,WeatherDisplay:10.37,2013-09-17 04:30:00,
2013-09-17 00:35:00,64.1,59.5,30.18,NNW,327,1.2,0.0,85,0.00,CLR,,0.00,WeatherDisplay:10.37,2013-09-17 04:35:00,
2013-09-17 00:40:00,63.9,59.3,30.19,NNW,327,0.0,0.0,85,0.00,CLR,,0.00,WeatherDisplay:10.37,2013-09-17 04:40:00,
2013-09-17 00:45:00,63.7,59.1,30.19,NNW,327,1.2,0.0,85,0.00,CLR,,0.00,WeatherDisplay:10.37,2013-09-17 04:45:00,
2013-09-17 00:50:00,63.5,58.9,30.19,NNW,327,0.0,0.0,85,0.00,CLR,,0.00,WeatherDisplay:10.37,2013-09-17 04:50:00,
2013-09-17 00:55:00,63.3,58.7,30.19,NNW,327,1.2,0.0,85,0.00,CLR,,0.00,WeatherDisplay:10.37,2013-09-17 04:55:00,
2013-09-17 01:00:00,63.1,58.5,30.19,NNW,327,1.2,0.0,85,0.00,CLR,,0.00,WeatherDisplay:10.37,2013-09-17 05:00:00,
2013-09-17 01:05:00,63.0,58.4,30.19,NNW,327,0.0,0.0,85,0.00,CLR,,0.00,WeatherDisplay:10.37,2013-09-17 05:05:00,
2013-09-17 01:10:00,62.8,58.2,30.19,NNW,327,3.5,3.5,85,0.00,CLR,,0.00,WeatherDisplay:10.37,2013-09-17 05:10:00,
2013-09-17 01:15:00,62.7,58.1,30.19,NNW,327,0.0,0.0,85,0.00,CLR,,0.00,WeatherDisplay:10.37,2013-09-17 05:15:00,
2013-09-17 01:20:00,62.6,58.0,30.19,NNW,327,0.0,0.0,85,0.00,CLR,,0.00,WeatherDisplay:10.37,2013-09-17 05:20:00,
2013-09-17 01:25:00,62.5,57.9,30.19,NNW,327,0.0,0.0,85,0.00,CLR,,0.00,WeatherDisplay:10.37,2013-09-17 05:25:00,
2013-09-17 01:30:00,62.3,57.7,30.19,NNW,327,0.0,0.0,85,0.00,CLR,,0.00,WeatherDisplay:10.37,2013-09-17 05:30:00,
2013-09-17 01:35:00,62.2,57.6,30.19,NNW,328,0.0,0.0,85,0.00,CLR,,0.00,WeatherDisplay:10.37,2013-09-17 05:35:00,
2013-09-17 01:40:00,62.1,57.5,30.19,NNW,328,1.2,0.0,85,0.00,CLR,,0.00,WeatherDisplay:10.37,2013-09-17 05:40:00,
2013-09-17 01:45:00,62.0,57.4,30.20,NNW,327,0.0,0.0,85,0.00,CLR,,0.00,WeatherDisplay:10.37,2013-09-17 05:45:00,
2013-09-17 01:50:00,61.8,57.6,30.20,NNW,328,0.0,0.0,86,0.00,CLR,,0.00,WeatherDisplay:10.37,2013-09-17 05:50:00,
2013-09-17 01:55:00,61.7,57.5,30.20,NNW,328,0.0,0.0,86,0.00,CLR,,0.00,WeatherDisplay:10.37,2013-09-17 05:55:00,
2013-09-17 02:00:00,61.5,57.3,30.19,NNW,328,0.0,0.0,86,0.00,CLR,,0.00,WeatherDisplay:10.37,2013-09-17 06:00:00,
2013-09-17 02:05:00,61.4,57.2,30.19,NNW,327,0.0,0.0,86,0.00,CLR,,0.00,WeatherDisplay:10.37,2013-09-17 06:05:00,
2013-09-17 02:10:00,61.2,57.0,30.19,NNW,328,0.0,0.0,86,0.00,CLR,,0.00,WeatherDisplay:10.37,2013-09-17 06:10:00,
2013-09-17 02:15:00,61.0,56.8,30.19,NNW,327,0.0,0.0,86,0.00,CLR,,0.00,WeatherDisplay:10.37,2013-09-17 06:15:00,
2013-09-17 02:20:00,60.8,56.6,30.19,NNW,328,0.0,0.0,86,0.00,CLR,,0.00,WeatherDisplay:10.37,2013-09-17 06:20:00,
2013-09-17 02:25:00,60.7,56.5,30.20,NNW,328,0.0,0.0,86,0.00,CLR,,0.00,WeatherDisplay:10.37,2013-09-17 06:25:00,
2013-09-17 02:30:00,60.6,56.7,30.20,NNW,328,0.0,0.0,87,0.00,CLR,,0.00,WeatherDisplay:10.37,2013-09-17 06:30:00,
2013-09-17 02:35:00,60.6,56.7,30.20,NNW,327,0.0,0.0,87,0.00,CLR,,0.00,WeatherDisplay:10.37,2013-09-17 06:35:00,
2013-09-17 02:40:00,60.5,56.6,30.20,NNW,328,0.0,0.0,87,0.00,CLR,,0.00,WeatherDisplay:10.37,2013-09-17 06:40:00,
2013-09-17 02:45:00,60.5,56.6,30.20,NNW,328,0.0,0.0,87,0.00,CLR,,0.00,WeatherDisplay:10.37,2013-09-17 06:45:00,
2013-09-17 02:50:00,60.4,56.5,30.20,NNW,328,0.0,0.0,87,0.00,CLR,,0.00,WeatherDisplay:10.37,2013-09-17 06:50:00,
2013-09-17 02:55:00,60.3,56.4,30.20,NNW,328,0.0,0.0,87,0.00,CLR,,0.00,WeatherDisplay:10.37,2013-09-17 06:55:00,
2013-09-17 03:00:00,60.2,56.3,30.20,NNW,328,0.0,0.0,87,0.00,CLR,,0.00,WeatherDisplay:10.37,2013-09-17 07:00:00,
2013-09-17 03:05:00,60.1,56.2,30.20,NNW,327,1.2,0.0,87,0.00,CLR,,0.00,WeatherDisplay:10.37,2013-09-17 07:05:00,
2013-09-17 04:50:00,57.4,54.2,30.21,NNW,333,0.0,0.0,89,0.00,CLR,,0.00,WeatherDisplay:10.37,2013-09-17 08:50:00,
2013-09-17 04:55:00,57.3,53.8,30.22,NNW,333,0.0,0.0,88,0.00,CLR,,0.00,WeatherDisplay:10.37,2013-09-17 08:55:00,
2013-09-17 05:00:00,57.2,53.7,30.21,NNW,333,0.0,0.0,88,0.00,CLR,,0.00,WeatherDisplay:10.37,2013-09-17 09:00:00,
2013-09-17 05:05:00,57.0,53.5,30.22,NNW,333,0.0,0.0,88,0.00,CLR,,0.00,WeatherDisplay:10.37,2013-09-17 09:05:00,
2013-09-17 05:10:00,56.9,53.7,30.22,NNW,333,0.0,0.0,89,0.00,CLR,,0.00,WeatherDisplay:10.37,2013-09-17 09:10:00,
2013-09-17 05:15:00,56.8,53.3,30.22,NNW,333,0.0,0.0,88,0.00,CLR,,0.00,WeatherDisplay:10.37,2013-09-17 09:15:00,
2013-09-17 05:20:00,56.6,53.4,30.22,NNW,333,0.0,0.0,89,0.00,CLR,,0.00,WeatherDisplay:10.37,2013-09-17 09:20:00,
2013-09-17 05:25:00,56.5,53.3,30.22,NNW,333,0.0,0.0,89,0.00,CLR,,0.00,WeatherDisplay:10.37,2013-09-17 09:25:00,
2013-09-17 05:30:00,56.3,53.1,30.22,NNW,333,0.0,0.0,89,0.00,CLR,,0.00,WeatherDisplay:10.37,2013-09-17 09:30:00,
2013-09-17 05:35:00,56.2,53.0,30.23,NNW,333,0.0,0.0,89,0.00,CLR,,0.00,WeatherDisplay:10.37,2013-09-17 09:35:00,
2013-09-17 05:40:00,56.1,52.9,30.23,NNW,333,0.0,0.0,89,0.00,CLR,,0.00,WeatherDisplay:10.37,2013-09-17 09:40:00,
2013-09-17 05:45:00,56.0,52.8,30.23,NNW,333,0.0,0.0,89,0.00,CLR,,0.00,WeatherDisplay:10.37,2013-09-17 09:45:00,
2013-09-17 05:50:00,55.9,52.7,30.23,NNW,333,0.0,0.0,89,0.00,CLR,,0.00,WeatherDisplay:10.37,2013-09-17 09:50:00,
2013-09-17 05:55:00,55.8,52.6,30.24,NNW,333,0.0,0.0,89,0.00,CLR,,0.00,WeatherDisplay:10.37,2013-09-17 09:55:00,
2013-09-17 06:00:00,55.7,52.5,30.24,NNW,333,0.0,0.0,89,0.00,CLR,,0.00,WeatherDisplay:10.37,2013-09-17 10:00:00,
2013-09-17 06:05:00,55.7,53.1,30.24,NNW,333,0.0,0.0,91,0.00,CLR,,0.00,WeatherDisplay:10.37,2013-09-17 10:05:00,
2013-09-17 06:10:00,55.6,53.0,30.24,NNW,333,0.0,0.0,91,0.00,CLR,,0.00,WeatherDisplay:10.37,2013-09-17 10:10:00,
2013-09-17 06:15:00,55.5,52.9,30.24,NNW,333,0.0,0.0,91,0.00,CLR,,0.00,WeatherDisplay:10.37,2013-09-17 10:15:00,
2013-09-17 06:20:00,55.4,52.8,30.25,NNW,333,0.0,0.0,91,0.00,CLR,,0.00,WeatherDisplay:10.37,2013-09-17 10:20:00,
2013-09-17 06:25:00,55.4,52.8,30.25,NNW,333,0.0,0.0,91,0.00,CLR,,0.00,WeatherDisplay:10.37,2013-09-17 10:25:00,
2013-09-17 06:30:00,55.2,52.6,30.25,NNW,333,0.0,0.0,91,0.00,CLR,,0.00,WeatherDisplay:10.37,2013-09-17 10:30:00,
2013-09-17 06:35:00,55.1,52.5,30.25,NNW,333,0.0,0.0,91,0.00,CLR,,0.00,WeatherDisplay:10.37,2013-09-17 10:35:00,
2013-09-17 06:40:00,55.1,52.5,30.25,NNW,333,0.0,0.0,91,0.00,CLR,,0.00,WeatherDisplay:10.37,2013-09-17 10:40:00,
2013-09-17 06:45:00,55.0,52.4,30.25,NNW,333,0.0,0.0,91,0.00,CLR,,0.00,WeatherDisplay:10.37,2013-09-17 10:45:00,
2013-09-17 06:50:00,54.9,52.6,30.26,NNW,333,0.0,0.0,92,0.00,CLR,,0.00,WeatherDisplay:10.37,2013-09-17 10:50:00,
2013-09-17 06:55:00,54.9,52.6,30.26,NNW,333,0.0,0.0,92,0.00,CLR,,0.00,WeatherDisplay:10.37,2013-09-17 10:55:00,
2013-09-17 07:00:00,54.8,52.5,30.26,South,191,0.0,0.0,92,0.00,CLR,,0.00,WeatherDisplay:10.37,2013-09-17 11:00:00,
2013-09-17 07:05:00,54.7,52.4,30.26,South,191,0.0,0.0,92,0.00,CLR,,0.00,WeatherDisplay:10.37,2013-09-17 11:05:00,
2013-09-17 07:10:00,54.6,52.3,30.27,South,191,0.0,0.0,92,0.00,CLR,,0.00,WeatherDisplay:10.37,2013-09-17 11:10:00,
2013-09-17 07:15:00,54.6,52.3,30.27,South,191,0.0,0.0,92,0.00,CLR,,0.00,WeatherDisplay:10.37,2013-09-17 11:15:00,
2013-09-17 07:20:00,54.5,52.2,30.27,South,191,0.0,0.0,92,0.00,CLR,,0.00,WeatherDisplay:10.37,2013-09-17 11:20:00,
2013-09-17 07:25:00,54.5,52.2,30.27,South,191,0.0,0.0,92,0.00,CLR,,0.00,WeatherDisplay:10.37,2013-09-17 11:25:00,
2013-09-17 07:30:00,54.4,52.1,30.28,South,191,0.0,0.0,92,0.00,CLR,,0.00,WeatherDisplay:10.37,2013-09-17 11:30:00,
2013-09-17 07:35:00,54.4,52.4,30.28,SW,232,2.0,2.0,93,0.00,CLR,,0.00,WeatherDisplay:10.37,2013-09-17 11:35:00,
2013-09-17 07:40:00,54.5,52.5,30.28,SW,232,0.0,0.0,93,0.00,CLR,,0.00,WeatherDisplay:10.37,2013-09-17 11:40:00,
2013-09-17 07:45:00,54.5,52.5,30.28,SW,232,0.0,0.0,93,0.00,CLR,,0.00,WeatherDisplay:10.37,2013-09-17 11:45:00,
2013-09-17 07:50:00,54.7,52.7,30.28,SW,232,1.2,0.0,93,0.00,CLR,,0.00,WeatherDisplay:10.37,2013-09-17 11:50:00,
2013-09-17 07:55:00,54.9,53.2,30.28,SW,232,0.0,0.0,94,0.00,CLR,,0.00,WeatherDisplay:10.37,2013-09-17 11:55:00,
2013-09-17 08:00:00,55.2,53.5,30.29,WNW,289,1.2,1.2,94,0.00,CLR,,0.00,WeatherDisplay:10.37,2013-09-17 12:00:00,
2013-09-17 08:05:00,55.5,53.8,30.29,NNW,342,4.6,4.6,94,0.00,CLR,,0.00,WeatherDisplay:10.37,2013-09-17 12:05:00,
2013-09-17 08:10:00,56.0,54.3,30.29,NW,313,1.2,0.0,94,0.00,CLR,,0.00,WeatherDisplay:10.37,2013-09-17 12:10:00,
2013-09-17 08:15:00,56.6,55.2,30.29,NW,321,5.8,5.8,95,0.00,CLR,,0.00,WeatherDisplay:10.37,2013-09-17 12:15:00,
2013-09-17 08:20:00,57.1,55.7,30.29,NW,321,0.0,0.0,95,0.00,CLR,,0.00,WeatherDisplay:10.37,2013-09-17 12:20:00,
2013-09-17 08:25:00,57.7,56.3,30.29,NW,321,1.2,1.2,95,0.00,CLR,,0.00,WeatherDisplay:10.37,2013-09-17 12:25:00,
2013-09-17 08:30:00,58.3,56.9,30.30,NW,321,5.8,5.8,95,0.00,CLR,,0.00,WeatherDisplay:10.37,2013-09-17 12:30:00,
2013-09-17 08:35:00,59.1,57.4,30.29,ENE,65,3.5,3.5,94,0.00,CLR,,0.00,WeatherDisplay:10.37,2013-09-17 12:35:00,
2013-09-17 08:40:00,59.5,57.5,30.30,ENE,76,3.5,3.5,93,0.00,CLR,,0.00,WeatherDisplay:10.37,2013-09-17 12:40:00,
2013-09-17 08:45:00,60.3,58.0,30.30,NE,48,0.0,0.0,92,0.00,CLR,,0.00,WeatherDisplay:10.37,2013-09-17 12:45:00,
2013-09-17 08:50:00,60.9,58.3,30.30,North,351,2.3,2.3,91,0.00,CLR,,0.00,WeatherDisplay:10.37,2013-09-17 12:50:00,
2013-09-17 08:55:00,61.5,58.2,30.30,ENE,74,4.6,4.6,89,0.00,CLR,,0.00,WeatherDisplay:10.37,2013-09-17 12:55:00,
2013-09-17 09:00:00,62.1,58.5,30.31,North,355,2.0,2.0,88,0.00,CLR,,0.00,WeatherDisplay:10.37,2013-09-17 13:00:00,
2013-09-17 09:05:00,62.6,58.4,30.31,North,355,1.2,1.2,86,0.00,CLR,,0.00,WeatherDisplay:10.37,2013-09-17 13:05:00,
2013-09-17 09:10:00,63.2,58.6,30.31,North,355,3.5,3.5,85,0.00,CLR,,0.00,WeatherDisplay:10.37,2013-09-17 13:10:00,
2013-09-17 09:15:00,63.7,58.8,30.31,NE,45,1.0,0.0,84,0.00,CLR,,0.00,WeatherDisplay:10.37,2013-09-17 13:15:00,
2013-09-17 09:20:00,64.2,58.2,30.31,NE,41,4.6,4.6,81,0.00,CLR,,0.00,WeatherDisplay:10.37,2013-09-17 13:20:00,
2013-09-17 09:25:00,64.7,58.4,30.31,NNW,346,4.6,4.6,80,0.00,CLR,,0.00,WeatherDisplay:10.37,2013-09-17 13:25:00,
2013-09-17 09:30:00,65.1,58.4,30.31,North,360,3.5,3.5,79,0.00,CLR,,0.00,WeatherDisplay:10.37,2013-09-17 13:30:00,
2013-09-17 09:35:00,65.6,58.6,30.31,ENE,60,9.2,9.2,78,0.00,CLR,,0.00,WeatherDisplay:10.37,2013-09-17 13:35:00,
2013-09-17 09:40:00,66.0,58.9,30.31,North,5,3.5,3.5,78,0.00,CLR,,0.00,WeatherDisplay:10.37,2013-09-17 13:40:00,
2013-09-17 09:45:00,66.5,58.7,30.32,NNE,15,2.3,2.3,76,0.00,CLR,,0.00,WeatherDisplay:10.37,2013-09-17 13:45:00,
2013-09-17 09:50:00,66.8,59.0,30.32,NNW,348,4.6,4.6,76,0.00,CLR,,0.00,WeatherDisplay:10.37,2013-09-17 13:50:00,
2013-09-17 09:55:00,67.2,59.0,30.31,NNW,348,2.3,2.3,75,0.00,CLR,,0.00,WeatherDisplay:10.37,2013-09-17 13:55:00,
2013-09-17 10:00:00,67.6,58.6,30.32,NW,315,5.8,5.8,73,0.00,CLR,,0.00,WeatherDisplay:10.37,2013-09-17 14:00:00,
2013-09-17 10:05:00,68.0,58.6,30.32,North,355,5.8,5.8,72,0.00,CLR,,0.00,WeatherDisplay:10.37,2013-09-17 14:05:00,
2013-09-17 10:10:00,68.4,58.6,30.32,North,360,3.5,3.5,71,0.00,CLR,,0.00,WeatherDisplay:10.37,2013-09-17 14:10:00,
2013-09-17 10:15:00,68.6,58.4,30.32,North,5,3.5,3.5,70,0.00,CLR,,0.00,WeatherDisplay:10.37,2013-09-17 14:15:00,
2013-09-17 10:20:00,69.0,58.0,30.32,NNW,336,3.5,3.5,68,0.00,CLR,,0.00,WeatherDisplay:10.37,2013-09-17 14:20:00,
2013-09-17 10:25:00,69.2,58.2,30.33,NE,42,3.5,3.5,68,0.00,CLR,,0.00,WeatherDisplay:10.37,2013-09-17 14:25:00,
2013-09-17 10:30:00,69.4,57.5,30.33,North,360,5.8,5.8,66,0.00,CLR,,0.00,WeatherDisplay:10.37,2013-09-17 14:30:00,
2013-09-17 10:35:00,69.5,57.6,30.33,NE,44,10.4,10.4,66,0.00,CLR,,0.00,WeatherDisplay:10.37,2013-09-17 14:35:00,
2013-09-17 10:40:00,69.7,57.8,30.33,NE,55,1.2,0.0,66,0.00,CLR,,0.00,WeatherDisplay:10.37,2013-09-17 14:40:00,
2013-09-17 10:45:00,70.4,58.5,30.33,NNE,22,2.3,2.3,66,0.00,CLR,,0.00,WeatherDisplay:10.37,2013-09-17 14:45:00,
2013-09-17 10:50:00,71.0,59.1,30.33,NW,306,4.6,4.6,66,0.00,CLR,,0.00,WeatherDisplay:10.37,2013-09-17 14:50:00,
2013-09-17 10:55:00,71.5,59.1,30.32,East,87,1.2,1.2,65,0.00,CLR,,0.00,WeatherDisplay:10.37,2013-09-17 14:55:00,
2013-09-17 11:00:00,71.9,59.1,30.33,ENE,70,4.6,4.6,64,0.00,CLR,,0.00,WeatherDisplay:10.37,2013-09-17 15:00:00,
2013-09-17 11:05:00,72.1,58.4,30.33,NE,55,12.7,12.7,62,0.00,CLR,,0.00,WeatherDisplay:10.37,2013-09-17 15:05:00,
2013-09-17 11:10:00,72.0,56.9,30.33,ENE,66,6.9,6.9,59,0.00,CLR,,0.00,WeatherDisplay:10.37,2013-09-17 15:10:00,
2013-09-17 11:15:00,72.2,56.6,30.33,ENE,72,4.6,4.6,58,0.00,CLR,,0.00,WeatherDisplay:10.37,2013-09-17 15:15:00,
2013-09-17 11:20:00,72.3,56.7,30.33,ENE,57,6.0,6.0,58,0.00,CLR,,0.00,WeatherDisplay:10.37,2013-09-17 15:20:00,
2013-09-17 11:25:00,72.3,56.7,30.33,ENE,72,4.6,4.6,58,0.00,CLR,,0.00,WeatherDisplay:10.37,2013-09-17 15:25:00,
2013-09-17 11:30:00,72.5,56.9,30.33,ENE,78,5.8,5.8,58,0.00,CLR,,0.00,WeatherDisplay:10.37,2013-09-17 15:30:00,
2013-09-17 11:35:00,72.7,56.1,30.33,East,83,4.6,4.6,56,0.00,CLR,,0.00,WeatherDisplay:10.37,2013-09-17 15:35:00,
2013-09-17 11:40:00,73.1,56.0,30.33,ENE,74,6.9,6.9,55,0.00,CLR,,0.00,WeatherDisplay:10.37,2013-09-17 15:40:00,
2013-09-17 11:45:00,73.1,56.0,30.33,ENE,67,3.5,3.5,55,0.00,CLR,,0.00,WeatherDisplay:10.37,2013-09-17 15:45:00,
2013-09-17 11:50:00,73.1,56.5,30.32,NNE,20,5.8,5.8,56,0.00,CLR,,0.00,WeatherDisplay:10.37,2013-09-17 15:50:00,
2013-09-17 11:55:00,73.4,57.2,30.32,North,355,12.7,12.7,57,0.00,CLR,,0.00,WeatherDisplay:10.37,2013-09-17 15:55:00,
2013-09-17 12:00:00,73.6,55.4,30.32,NE,34,11.5,11.5,53,0.00,CLR,,0.00,WeatherDisplay:10.37,2013-09-17 16:00:00,
2013-09-17 12:05:00,73.6,55.4,30.32,NNE,29,3.5,3.5,53,0.00,CLR,,0.00,WeatherDisplay:10.37,2013-09-17 16:05:00,
2013-09-17 12:10:00,74.0,56.3,30.32,ENE,61,2.3,2.3,54,0.00,CLR,,0.00,WeatherDisplay:10.37,2013-09-17 16:10:00,
2013-09-17 12:15:00,74.2,54.4,30.32,WNW,294,9.2,9.2,50,0.00,CLR,,0.00,WeatherDisplay:10.37,2013-09-17 16:15:00,
2013-09-17 12:20:00,74.4,54.5,30.32,East,98,3.5,3.5,50,0.00,CLR,,0.00,WeatherDisplay:10.37,2013-09-17 16:20:00,
2013-09-17 12:25:00,74.3,53.9,30.32,NE,53,4.6,4.6,49,0.00,CLR,,0.00,WeatherDisplay:10.37,2013-09-17 16:25:00,
2013-09-17 12:30:00,74.2,53.2,30.32,NE,42,5.8,5.8,48,0.00,CLR,,0.00,WeatherDisplay:10.37,2013-09-17 16:30:00,
2013-09-17 12:35:00,74.1,53.7,30.32,NNE,22,4.6,4.6,49,0.00,CLR,,0.00,WeatherDisplay:10.37,2013-09-17 16:35:00,
2013-09-17 12:40:00,74.3,54.5,30.31,North,11,3.5,3.5,50,0.00,CLR,,0.00,WeatherDisplay:10.37,2013-09-17 16:40:00,
2013-09-17 12:45:00,74.6,54.7,30.31,NNE,24,4.6,4.6,50,0.00,CLR,,0.00,WeatherDisplay:10.37,2013-09-17 16:45:00,
2013-09-17 12:50:00,74.7,53.7,30.31,ENE,58,3.5,3.5,48,0.00,CLR,,0.00,WeatherDisplay:10.37,2013-09-17 16:50:00,
2013-09-17 12:55:00,75.0,54.5,30.31,NE,37,4.6,4.6,49,0.00,CLR,,0.00,WeatherDisplay:10.37,2013-09-17 16:55:00,
2013-09-17 13:00:00,75.4,53.2,30.31,East,82,4.6,4.6,46,0.00,CLR,,0.00,WeatherDisplay:10.37,2013-09-17 17:00:00,
2013-09-17 13:05:00,75.5,52.1,30.31,ENE,75,11.5,11.5,44,0.00,CLR,,0.00,WeatherDisplay:10.37,2013-09-17 17:05:00,
2013-09-17 13:10:00,75.5,53.9,30.30,NE,47,12.7,12.7,47,0.00,CLR,,0.00,WeatherDisplay:10.37,2013-09-17 17:10:00,
2013-09-17 13:15:00,75.6,52.1,30.30,North,355,5.8,5.8,44,0.00,CLR,,0.00,WeatherDisplay:10.37,2013-09-17 17:15:00,
2013-09-17 13:20:00,75.6,51.5,30.30,ENE,63,6.9,6.9,43,0.00,CLR,,0.00,WeatherDisplay:10.37,2013-09-17 17:20:00,
2013-09-17 13:25:00,75.9,53.6,30.30,ENE,72,2.3,2.3,46,0.00,CLR,,0.00,WeatherDisplay:10.37,2013-09-17 17:25:00,
2013-09-17 13:30:00,76.5,53.6,30.30,North,9,4.6,4.6,45,0.00,CLR,,0.00,WeatherDisplay:10.37,2013-09-17 17:30:00,
2013-09-17 13:35:00,76.4,54.1,30.30,North,5,5.8,5.8,46,0.00,CLR,,0.00,WeatherDisplay:10.37,2013-09-17 17:35:00,
2013-09-17 13:40:00,76.4,54.1,30.30,North,355,4.0,4.0,46,0.00,CLR,,0.00,WeatherDisplay:10.37,2013-09-17 17:40:00,
2013-09-17 13:45:00,76.5,52.3,30.30,North,5,9.2,9.2,43,0.00,CLR,,0.00,WeatherDisplay:10.37,2013-09-17 17:45:00,
2013-09-17 13:50:00,76.3,52.2,30.30,NE,47,6.9,6.9,43,0.00,CLR,,0.00,WeatherDisplay:10.37,2013-09-17 17:50:00,
2013-09-17 13:55:00,76.1,52.6,30.29,North,355,5.8,5.8,44,0.00,CLR,,0.00,WeatherDisplay:10.37,2013-09-17 17:55:00,
2013-09-17 14:00:00,76.2,51.4,30.29,ENE,74,13.8,13.8,42,0.00,CLR,,0.00,WeatherDisplay:10.37,2013-09-17 18:00:00,
2013-09-17 14:05:00,76.1,52.0,30.29,NW,307,1.2,1.3,43,0.00,CLR,,0.00,WeatherDisplay:10.37,2013-09-17 18:05:00,
2013-09-17 14:10:00,76.2,52.7,30.28,ESE,117,12.7,12.7,44,0.00,CLR,,0.00,WeatherDisplay:10.37,2013-09-17 18:10:00,
2013-09-17 14:15:00,76.3,52.8,30.28,NNW,345,9.2,9.2,44,0.00,CLR,,0.00,WeatherDisplay:10.37,2013-09-17 18:15:00,
2013-09-17 14:20:00,76.5,52.3,30.28,North,355,5.8,5.8,43,0.00,CLR,,0.00,WeatherDisplay:10.37,2013-09-17 18:20:00,
2013-09-17 14:25:00,76.6,53.1,30.28,ENE,67,2.3,0.0,44,0.00,CLR,,0.00,WeatherDisplay:10.37,2013-09-17 18:25:00,
2013-09-17 14:30:00,76.8,52.6,30.28,NNW,348,8.1,8.1,43,0.00,CLR,,0.00,WeatherDisplay:10.37,2013-09-17 18:30:00,
2013-09-17 14:35:00,76.5,52.3,30.28,ENE,77,4.6,4.6,43,0.00,CLR,,0.00,WeatherDisplay:10.37,2013-09-17 18:35:00,
2013-09-17 14:40:00,76.8,52.6,30.27,ENE,60,9.0,9.0,43,0.00,CLR,,0.00,WeatherDisplay:10.37,2013-09-17 18:40:00,
2013-09-17 14:45:00,76.9,51.4,30.27,East,98,6.0,6.0,41,0.00,CLR,,0.00,WeatherDisplay:10.37,2013-09-17 18:45:00,
2013-09-17 14:50:00,77.0,52.8,30.27,ENE,78,7.0,7.0,43,0.00,CLR,,0.00,WeatherDisplay:10.37,2013-09-17 18:50:00,
2013-09-17 14:55:00,77.1,54.1,30.27,NNW,329,3.5,3.5,45,0.00,CLR,,0.00,WeatherDisplay:10.37,2013-09-17 18:55:00,
2013-09-17 15:00:00,77.2,51.7,30.27,ENE,61,11.5,11.5,41,0.00,CLR,,0.00,WeatherDisplay:10.37,2013-09-17 19:00:00,
2013-09-17 15:05:00,76.0,52.5,30.27,East,81,9.2,9.2,44,0.00,CLR,,0.00,WeatherDisplay:10.37,2013-09-17 19:05:00,
2013-09-17 15:10:00,75.4,50.7,30.27,ENE,68,9.2,9.2,42,0.00,CLR,,0.00,WeatherDisplay:10.37,2013-09-17 19:10:00,
2013-09-17 15:15:00,75.2,51.2,30.27,NE,48,3.5,3.5,43,0.00,CLR,,0.00,WeatherDisplay:10.37,2013-09-17 19:15:00,
2013-09-17 15:20:00,75.6,52.8,30.27,East,98,5.8,5.8,45,0.00,CLR,,0.00,WeatherDisplay:10.37,2013-09-17 19:20:00,
2013-09-17 15:25:00,76.2,52.1,30.26,NNW,344,3.5,3.5,43,0.00,CLR,,0.00,WeatherDisplay:10.37,2013-09-17 19:25:00,
2013-09-17 15:30:00,76.8,52.0,30.26,ENE,71,6.9,6.9,42,0.00,CLR,,0.00,WeatherDisplay:10.37,2013-09-17 19:30:00,
2013-09-17 15:35:00,76.8,52.0,30.26,NNW,337,5.8,5.8,42,0.00,CLR,,0.00,WeatherDisplay:10.37,2013-09-17 19:35:00,
2013-09-17 15:40:00,76.7,51.9,30.26,North,360,4.6,4.6,42,0.00,CLR,,0.00,WeatherDisplay:10.37,2013-09-17 19:40:00,
2013-09-17 15:45:00,76.5,51.7,30.26,North,349,1.2,1.2,42,0.00,CLR,,0.00,WeatherDisplay:10.37,2013-09-17 19:45:00,
2013-09-17 15:50:00,76.3,52.2,30.26,North,9,1.2,1.2,43,0.00,CLR,,0.00,WeatherDisplay:10.37,2013-09-17 19:50:00,
2013-09-17 15:55:00,76.7,51.9,30.26,NE,52,17.3,17.3,42,0.00,CLR,,0.00,WeatherDisplay:10.37,2013-09-17 19:55:00,
2013-09-17 16:00:00,77.1,52.2,30.26,NE,50,3.5,3.5,42,0.00,CLR,,0.00,WeatherDisplay:10.37,2013-09-17 20:00:00,
2013-09-17 16:05:00,77.0,51.5,30.26,ENE,63,5.8,5.8,41,0.00,CLR,,0.00,WeatherDisplay:10.37,2013-09-17 20:05:00,
2013-09-17 16:10:00,76.7,51.9,30.26,NNE,32,3.5,3.5,42,0.00,CLR,,0.00,WeatherDisplay:10.37,2013-09-17 20:10:00,
2013-09-17 16:15:00,76.8,52.0,30.25,ENE,72,10.4,10.4,42,0.00,CLR,,0.00,WeatherDisplay:10.37,2013-09-17 20:15:00,
2013-09-17 16:20:00,76.5,51.7,30.25,East,83,6.0,6.0,42,0.00,CLR,,0.00,WeatherDisplay:10.37,2013-09-17 20:20:00,
2013-09-17 16:25:00,76.2,52.1,30.25,ENE,61,5.8,5.8,43,0.00,CLR,,0.00,WeatherDisplay:10.37,2013-09-17 20:25:00,
2013-09-17 16:30:00,75.8,51.7,30.25,NE,41,3.5,3.5,43,0.00,CLR,,0.00,WeatherDisplay:10.37,2013-09-17 20:30:00,
2013-09-17 16:35:00,75.8,51.1,30.25,North,10,3.5,3.5,42,0.00,CLR,,0.00,WeatherDisplay:10.37,2013-09-17 20:35:00,
2013-09-17 16:40:00,75.9,51.8,30.25,NW,306,3.5,3.5,43,0.00,CLR,,0.00,WeatherDisplay:10.37,2013-09-17 20:40:00,
2013-09-17 16:45:00,76.0,51.9,30.25,East,86,3.5,3.5,43,0.00,CLR,,0.00,WeatherDisplay:10.37,2013-09-17 20:45:00,
2013-09-17 16:50:00,76.3,52.2,30.25,NE,34,3.5,3.5,43,0.00,CLR,,0.00,WeatherDisplay:10.37,2013-09-17 20:50:00,
2013-09-17 16:55:00,76.7,51.9,30.25,ENE,65,9.0,9.0,42,0.00,CLR,,0.00,WeatherDisplay:10.37,2013-09-17 20:55:00,
2013-09-17 17:00:00,76.3,51.5,30.25,ENE,75,3.5,3.5,42,0.00,CLR,,0.00,WeatherDisplay:10.37,2013-09-17 21:00:00,
2013-09-17 17:06:00,76.1,52.0,30.25,East,93,3.5,3.5,43,0.00,CLR,,0.00,WeatherDisplay:10.37,2013-09-17 21:06:00,
2013-09-17 17:11:00,75.6,51.5,30.25,NE,51,4.6,5.7,43,0.00,CLR,,0.00,WeatherDisplay:10.37,2013-09-17 21:11:00,
2013-09-17 17:16:00,75.0,51.6,30.25,East,85,2.3,2.3,44,0.00,CLR,,0.00,WeatherDisplay:10.37,2013-09-17 21:16:00,
2013-09-17 17:21:00,74.7,51.3,30.25,East,83,9.2,9.2,44,0.00,CLR,,0.00,WeatherDisplay:10.37,2013-09-17 21:21:00,
2013-09-17 17:26:00,74.3,51.6,30.25,East,97,6.9,6.9,45,0.00,CLR,,0.00,WeatherDisplay:10.37,2013-09-17 21:26:00,
2013-09-17 17:31:00,74.1,50.8,30.25,ESE,103,4.6,4.6,44,0.00,CLR,,0.00,WeatherDisplay:10.37,2013-09-17 21:31:00,
2013-09-17 17:36:00,73.9,50.6,30.25,ENE,66,6.9,6.9,44,0.00,CLR,,0.00,WeatherDisplay:10.37,2013-09-17 21:36:00,
2013-09-17 17:41:00,73.5,50.9,30.25,NE,56,4.6,4.6,45,0.00,CLR,,0.00,WeatherDisplay:10.37,2013-09-17 21:41:00,
2013-09-17 17:46:00,73.4,51.9,30.25,NE,53,3.5,3.5,47,0.00,CLR,,0.00,WeatherDisplay:10.37,2013-09-17 21:46:00,
2013-09-17 17:51:00,73.2,51.8,30.25,NE,52,0.0,0.0,47,0.00,CLR,,0.00,WeatherDisplay:10.37,2013-09-17 21:51:00,
2013-09-17 17:56:00,73.1,52.2,30.25,NE,52,0.0,0.1,48,0.00,CLR,,0.00,WeatherDisplay:10.37,2013-09-17 21:56:00,
2013-09-17 18:01:00,73.1,52.2,30.25,NE,53,1.2,0.0,48,0.00,CLR,,0.00,WeatherDisplay:10.37,2013-09-17 22:01:00,
2013-09-17 18:06:00,73.2,51.8,30.25,NE,53,1.2,0.0,47,0.00,CLR,,0.00,WeatherDisplay:10.37,2013-09-17 22:06:00,
2013-09-17 18:11:00,73.2,51.2,30.25,NE,44,4.6,4.6,46,0.00,CLR,,0.00,WeatherDisplay:10.37,2013-09-17 22:11:00,
2013-09-17 18:16:00,73.2,51.8,30.25,NNE,25,1.2,1.2,47,0.00,CLR,,0.00,WeatherDisplay:10.37,2013-09-17 22:16:00,
2013-09-17 18:21:00,73.1,51.7,30.25,NW,323,1.2,1.2,47,0.00,CLR,,0.00,WeatherDisplay:10.37,2013-09-17 22:21:00,
2013-09-17 18:26:00,72.9,52.1,30.25,NNE,13,1.2,1.2,48,0.00,CLR,,0.00,WeatherDisplay:10.37,2013-09-17 22:26:00,
2013-09-17 18:31:00,72.7,52.4,30.25,NNE,13,0.0,1.1,49,0.00,CLR,,0.00,WeatherDisplay:10.37,2013-09-17 22:31:00,
2013-09-17 18:36:00,72.4,52.2,30.25,NE,40,0.0,0.5,49,0.00,CLR,,0.00,WeatherDisplay:10.37,2013-09-17 22:36:00,
2013-09-17 18:41:00,71.7,51.5,30.25,ENE,61,5.8,5.8,49,0.00,CLR,,0.00,WeatherDisplay:10.37,2013-09-17 22:41:00,
2013-09-17 18:46:00,71.1,51.5,30.25,ENE,62,4.6,4.6,50,0.00,CLR,,0.00,WeatherDisplay:10.37,2013-09-17 22:46:00,
2013-09-17 18:51:00,70.7,51.7,30.25,NE,44,3.5,3.5,51,0.00,CLR,,0.00,WeatherDisplay:10.37,2013-09-17 22:51:00,
2013-09-17 18:56:00,70.3,51.8,30.25,NE,44,0.0,0.0,52,0.00,CLR,,0.00,WeatherDisplay:10.37,2013-09-17 22:56:00,
2013-09-17 19:01:00,70.1,52.2,30.25,NE,44,0.0,0.0,53,0.00,CLR,,0.00,WeatherDisplay:10.37,2013-09-17 23:01:00,
2013-09-17 19:06:00,69.7,52.3,30.26,NE,44,0.0,0.0,54,0.00,CLR,,0.00,WeatherDisplay:10.37,2013-09-17 23:06:00,
2013-09-17 19:11:00,69.3,51.9,30.25,NE,44,0.0,0.0,54,0.00,CLR,,0.00,WeatherDisplay:10.37,2013-09-17 23:11:00,
2013-09-17 19:16:00,68.9,51.6,30.26,NE,44,0.0,0.0,54,0.00,CLR,,0.00,WeatherDisplay:10.37,2013-09-17 23:16:00,
2013-09-17 19:21:00,68.4,51.6,30.26,NE,44,0.0,0.0,55,0.00,CLR,,0.00,WeatherDisplay:10.37,2013-09-17 23:21:00,
2013-09-17 19:26:00,67.8,51.5,30.26,NE,44,0.0,0.0,56,0.00,CLR,,0.00,WeatherDisplay:10.37,2013-09-17 23:26:00,
2013-09-17 19:31:00,67.3,51.5,30.26,NE,44,0.0,0.0,57,0.00,CLR,,0.00,WeatherDisplay:10.37,2013-09-17 23:31:00,
2013-09-17 19:36:00,66.8,51.5,30.26,NE,44,0.0,0.0,58,0.00,CLR,,0.00,WeatherDisplay:10.37,2013-09-17 23:36:00,
2013-09-17 19:41:00,66.2,51.4,30.26,NE,44,0.0,0.0,59,0.00,CLR,,0.00,WeatherDisplay:10.37,2013-09-17 23:41:00,
2013-09-17 19:46:00,65.7,52.3,30.26,NE,44,0.0,0.0,62,0.00,CLR,,0.00,WeatherDisplay:10.37,2013-09-17 23:46:00,
2013-09-17 19:51:00,65.1,52.2,30.26,NE,44,0.0,0.0,63,0.00,CLR,,0.00,WeatherDisplay:10.37,2013-09-17 23:51:00,
2013-09-17 19:56:00,64.6,52.1,30.26,NE,44,0.0,0.0,64,0.00,CLR,,0.00,WeatherDisplay:10.37,2013-09-17 23:56:00,
2013-09-17 20:01:00,64.1,51.7,30.26,NE,44,0.0,0.0,64,0.00,CLR,,0.00,WeatherDisplay:10.37,2013-09-18 00:01:00,
2013-09-17 20:06:00,63.6,51.2,30.26,NE,44,0.0,0.0,64,0.00,CLR,,0.00,WeatherDisplay:10.37,2013-09-18 00:06:00,
2013-09-17 20:11:00,63.1,51.1,30.26,NE,44,0.0,0.0,65,0.00,CLR,,0.00,WeatherDisplay:10.37,2013-09-18 00:11:00,
2013-09-17 20:16:00,62.7,50.8,30.26,NE,44,0.0,0.0,65,0.00,CLR,,0.00,WeatherDisplay:10.37,2013-09-18 00:16:00,
2013-09-17 20:21:00,62.3,50.8,30.27,NE,44,0.0,0.0,66,0.00,CLR,,0.00,WeatherDisplay:10.37,2013-09-18 00:21:00,
2013-09-17 20:26:00,61.9,50.4,30.27,NE,44,0.0,0.0,66,0.00,CLR,,0.00,WeatherDisplay:10.37,2013-09-18 00:26:00,
2013-09-17 20:31:00,61.5,51.2,30.27,NE,44,0.0,0.0,69,0.00,CLR,,0.00,WeatherDisplay:10.37,2013-09-18 00:31:00,
2013-09-17 20:36:00,61.1,51.2,30.27,NE,44,0.0,0.0,70,0.00,CLR,,0.00,WeatherDisplay:10.37,2013-09-18 00:36:00,
2013-09-17 20:41:00,60.8,51.3,30.27,NE,44,0.0,0.0,71,0.00,CLR,,0.00,WeatherDisplay:10.37,2013-09-18 00:41:00,
2013-09-17 20:46:00,60.4,51.0,30.27,NE,44,0.0,0.0,71,0.00,CLR,,0.00,WeatherDisplay:10.37,2013-09-18 00:46:00,
2013-09-17 20:51:00,60.1,51.0,30.27,NE,44,0.0,0.0,72,0.00,CLR,,0.00,WeatherDisplay:10.37,2013-09-18 00:51:00,
2013-09-17 20:56:00,59.9,50.8,30.27,NE,44,0.0,0.0,72,0.00,CLR,,0.00,WeatherDisplay:10.37,2013-09-18 00:56:00,
2013-09-17 21:01:00,59.6,50.9,30.27,NE,34,1.2,1.2,73,0.00,CLR,,0.00,WeatherDisplay:10.37,2013-09-18 01:01:00,
2013-09-17 21:06:00,59.3,51.4,30.27,NE,34,0.0,0.0,75,0.00,CLR,,0.00,WeatherDisplay:10.37,2013-09-18 01:06:00,
2013-09-17 21:11:00,59.1,51.5,30.27,East,84,0.0,0.2,76,0.00,CLR,,0.00,WeatherDisplay:10.37,2013-09-18 01:11:00,
2013-09-17 21:16:00,59.1,51.9,30.28,East,79,1.2,0.0,77,0.00,CLR,,0.00,WeatherDisplay:10.37,2013-09-18 01:16:00,
2013-09-17 21:21:00,58.9,51.7,30.28,East,80,3.5,3.5,77,0.00,CLR,,0.00,WeatherDisplay:10.37,2013-09-18 01:21:00,
2013-09-17 21:26:00,58.8,51.6,30.28,East,79,3.5,0.0,77,0.00,CLR,,0.00,WeatherDisplay:10.37,2013-09-18 01:26:00,
2013-09-17 21:31:00,58.7,51.9,30.28,East,80,1.2,0.0,78,0.00,CLR,,0.00,WeatherDisplay:10.37,2013-09-18 01:31:00,
2013-09-17 21:36:00,58.6,51.8,30.28,East,80,0.0,0.0,78,0.00,CLR,,0.00,WeatherDisplay:10.37,2013-09-18 01:36:00,
2013-09-17 21:41:00,58.5,51.3,30.29,East,80,0.0,0.0,77,0.00,CLR,,0.00,WeatherDisplay:10.37,2013-09-18 01:41:00,
2013-09-17 21:46:00,58.4,51.2,30.29,East,80,1.2,0.0,77,0.00,CLR,,0.00,WeatherDisplay:10.37,2013-09-18 01:46:00,
2013-09-17 21:51:00,58.2,51.4,30.29,East,80,0.0,0.0,78,0.00,CLR,,0.00,WeatherDisplay:10.37,2013-09-18 01:51:00,
2013-09-17 21:56:00,58.0,51.2,30.29,East,80,0.0,0.0,78,0.00,CLR,,0.00,WeatherDisplay:10.37,2013-09-18 01:56:00,
2013-09-17 22:01:00,57.8,51.0,30.29,East,80,0.0,0.0,78,0.00,CLR,,0.00,WeatherDisplay:10.37,2013-09-18 02:01:00,
2013-09-17 22:06:00,57.6,50.8,30.29,East,80,0.0,0.0,78,0.00,CLR,,0.00,WeatherDisplay:10.37,2013-09-18 02:06:00,
2013-09-17 22:11:00,57.5,50.7,30.29,East,80,0.0,0.0,78,0.00,CLR,,0.00,WeatherDisplay:10.37,2013-09-18 02:11:00,
2013-09-17 22:16:00,57.3,50.5,30.29,East,80,0.0,0.0,78,0.00,CLR,,0.00,WeatherDisplay:10.37,2013-09-18 02:16:00,
2013-09-17 22:21:00,57.0,50.5,30.29,East,80,0.0,0.0,79,0.00,CLR,,0.00,WeatherDisplay:10.37,2013-09-18 02:21:00,
2013-09-17 22:26:00,56.8,50.4,30.30,East,80,0.0,0.0,79,0.00,CLR,,0.00,WeatherDisplay:10.37,2013-09-18 02:26:00,
2013-09-17 22:31:00,56.6,50.2,30.29,East,80,0.0,0.0,79,0.00,CLR,,0.00,WeatherDisplay:10.37,2013-09-18 02:31:00,
2013-09-17 22:36:00,56.4,50.0,30.30,East,80,0.0,0.0,79,0.00,CLR,,0.00,WeatherDisplay:10.37,2013-09-18 02:36:00,
2013-09-17 22:41:00,56.2,49.8,30.30,East,80,0.0,0.0,79,0.00,CLR,,0.00,WeatherDisplay:10.37,2013-09-18 02:41:00,
2013-09-17 22:46:00,56.0,49.9,30.30,East,80,0.0,0.0,80,0.00,CLR,,0.00,WeatherDisplay:10.37,2013-09-18 02:46:00,
2013-09-17 22:51:00,55.8,49.4,30.30,East,80,0.0,0.0,79,0.00,CLR,,0.00,WeatherDisplay:10.37,2013-09-18 02:51:00,
2013-09-17 22:56:00,55.6,49.5,30.30,East,80,0.0,0.0,80,0.00,CLR,,0.00,WeatherDisplay:10.37,2013-09-18 02:56:00,
2013-09-17 23:01:00,55.4,49.3,30.30,East,80,0.0,0.0,80,0.00,CLR,,0.00,WeatherDisplay:10.37,2013-09-18 03:01:00,
2013-09-17 23:06:00,55.2,49.1,30.30,East,80,0.0,0.0,80,0.00,CLR,,0.00,WeatherDisplay:10.37,2013-09-18 03:06:00,
2013-09-17 23:11:00,55.0,49.3,30.30,East,80,0.0,0.0,81,0.00,CLR,,0.00,WeatherDisplay:10.37,2013-09-18 03:11:00,
2013-09-17 23:16:00,54.9,49.2,30.30,East,80,0.0,0.0,81,0.00,CLR,,0.00,WeatherDisplay:10.37,2013-09-18 03:16:00,
2013-09-17 23:21:00,54.7,49.0,30.31,East,80,0.0,0.0,81,0.00,CLR,,0.00,WeatherDisplay:10.37,2013-09-18 03:21:00,
2013-09-17 23:26:00,54.4,48.7,30.31,East,80,0.0,0.0,81,0.00,CLR,,0.00,WeatherDisplay:10.37,2013-09-18 03:26:00,
2013-09-17 23:31:00,54.3,48.6,30.31,East,80,0.0,0.0,81,0.00,CLR,,0.00,WeatherDisplay:10.37,2013-09-18 03:31:00,
2013-09-17 23:36:00,54.0,48.6,30.31,East,80,0.0,0.0,82,0.00,CLR,,0.00,WeatherDisplay:10.37,2013-09-18 03:36:00,
2013-09-17 23:41:00,53.9,48.5,30.31,East,80,0.0,0.0,82,0.00,CLR,,0.00,WeatherDisplay:10.37,2013-09-18 03:41:00,
2013-09-17 23:46:00,53.7,49.0,30.31,East,80,0.0,0.0,84,0.00,CLR,,0.00,WeatherDisplay:10.37,2013-09-18 03:46:00,
2013-09-17 23:52:00,53.5,48.8,30.31,East,80,0.0,0.0,84,0.00,CLR,,0.00,WeatherDisplay:10.37,2013-09-18 03:52:00,
2013-09-17 23:57:00,53.4,48.7,30.31,East,80,0.0,0.0,84,0.00,CLR,,0.00,WeatherDisplay:10.37,2013-09-18 03:57:00,